Torna al catalogo

CZ-6A DEB

AttivoSSO
NORAD 55210·DEBRIS·🇨🇳 China

Lanciato Nov 11, 2022 da Taiyuan Satellite Launch Center

Loading…

Prossimi Passaggi (prossime 24 ore)

TLE

AggiornatoSource: Space-Track

Epoca: Sep 14, 2026, 13:06 UTC

1 55210U 22151WB  26257.54608082  .00003183  00000-0  10341-2 0  9995
2 55210  98.7464 293.3768 0038110  37.0070 323.3735 14.39145505194772

Traccia CZ-6A DEB in tempo reale con AllMySat

Download on the App Store